Flag for Spain Weather past 2 weeks in Barcelona, Barcelona, Spain

Now
59 °F

Passing clouds.


Feels Like: 57 °F
Forecast: 47 / 61 °F
Wind: 10 mph from Northwest

Location: Barcelona Airport

Current Time: Dec 18, 2014 at 9:42:39 PM

Latest Report: Dec 18, 2014 at 9:00 PM


Visibility: N/A

Pressure: 30.30 "Hg

Humidity: 68%

Dew point: 48 °F

Location of BarcelonaLocation

Historic Weather in Barcelona — Graph

°F

Barcelona temperature yesterday

Maximum temperature yesterday: 55 °F (at 2:30 PM)
Minimum temperature yesterday: 45 °F (at 7:00 AM)
Average temperature yesterday: 51 °F

Past Weeks' High & Low Weather Summary

 TemperatureHumidityPressure
High64 °F (Dec 18, 3:00 PM)100% (Dec 3, 9:30 PM)30.39 "Hg (Dec 3, 9:30 PM)
Low41 °F (Dec 10, 5:00 AM)16% (Dec 9, 2:30 PM)29.80 "Hg (Dec 4, 3:30 AM)
Average50 °F72%30.08 "Hg
* Reported Dec 3 8:00 PM — Dec 18 8:30 PM, Barcelona, Weather by CustomWeather, © 2014

Note: Actual official high and low records may vary slightly from our data, if they occured in-between our weather recording intervals... More about our weather records

Advertising

Barcelona weather history for previous 24 hours

 ConditionsComfort  
Time TempWeatherWind HumidityBarometerVisibility
8:30 PM
Dec 18
59 °FPassing clouds.10 mph68%30.27 "HgN/A
8:00 PM59 °FPassing clouds.10 mph68%30.27 "HgN/A
7:30 PM57 °FPassing clouds.8 mph77%30.27 "HgN/A
7:00 PM57 °FClear.8 mph82%30.27 "Hg10 mi
6:30 PM59 °FPassing clouds.6 mph82%30.24 "HgN/A
6:00 PM59 °FClear.9 mph77%30.24 "Hg10 mi
5:30 PM61 °FPassing clouds.7 mph63%30.21 "HgN/A
5:00 PM61 °FPassing clouds.8 mph63%30.21 "HgN/A
4:30 PM61 °FPassing clouds.8 mph72%30.21 "HgN/A
4:00 PM61 °FPassing clouds.13 mph72%30.21 "HgN/A
3:30 PM63 °FPassing clouds.13 mph64%30.21 "HgN/A
3:00 PM64 °FSunny.13 mph60%30.21 "Hg10 mi
2:30 PM63 °FPassing clouds.14 mph64%30.21 "HgN/A
2:00 PM63 °FPassing clouds.16 mph59%30.18 "HgN/A
1:30 PM63 °FPassing clouds.13 mph59%30.21 "HgN/A
1:00 PM61 °FPassing clouds.12 mph63%30.21 "HgN/A
12:30 PM61 °FSunny.15 mph59%30.21 "Hg10 mi
12:00 PM59 °FPassing clouds.9 mph63%30.21 "HgN/A
11:30 AM59 °FSunny.10 mph63%30.21 "Hg10 mi
11:00 AM57 °FPassing clouds.10 mph67%30.21 "HgN/A
10:30 AM57 °FPassing clouds.9 mph67%30.21 "HgN/A
10:00 AM55 °FPassing clouds.12 mph67%30.18 "HgN/A
9:30 AM55 °FPassing clouds.13 mph67%30.18 "HgN/A
9:00 AM54 °FPassing clouds.9 mph72%30.18 "HgN/A
8:30 AM54 °FPassing clouds.9 mph67%30.18 "HgN/A
8:00 AM54 °FPassing clouds.7 mph67%30.18 "HgN/A
7:30 AM52 °FPassing clouds.9 mph72%30.15 "HgN/A
7:00 AM52 °FPassing clouds.9 mph72%30.15 "HgN/A
6:30 AM52 °FPassing clouds.10 mph72%30.15 "HgN/A
6:00 AM52 °FPassing clouds.12 mph77%30.15 "HgN/A
5:30 AM50 °FPassing clouds.10 mph76%30.12 "HgN/A
4:30 AM50 °FPassing clouds.8 mph76%30.15 "HgN/A
4:00 AM50 °FPassing clouds.6 mph82%30.15 "HgN/A
3:30 AM52 °FPassing clouds.7 mph77%30.15 "HgN/A
3:00 AM50 °FPassing clouds.7 mph82%30.15 "HgN/A
2:30 AM50 °FPassing clouds.8 mph82%30.15 "HgN/A
2:00 AM52 °FPassing clouds.6 mph77%30.12 "HgN/A
1:30 AM54 °FPassing clouds.3 mph72%30.12 "HgN/A
1:00 AM52 °FPassing clouds.7 mph77%30.12 "HgN/A
12:30 AM52 °FPassing clouds.10 mph77%30.12 "HgN/A
12:00 AM50 °FPassing clouds.12 mph82%30.12 "HgN/A
11:30 PM
Dec 17
50 °FPassing clouds.10 mph82%30.12 "HgN/A
11:00 PM52 °FPassing clouds.12 mph77%30.12 "HgN/A
10:30 PM50 °FPassing clouds.6 mph82%30.12 "HgN/A
10:00 PM50 °FPassing clouds.9 mph82%30.12 "HgN/A
9:30 PM50 °FPassing clouds.7 mph82%30.12 "HgN/A
9:00 PM50 °FPassing clouds.5 mph82%30.12 "HgN/A
Weather by CustomWeather, © 2014

See weather overviewHow to use our weather pages